Regional Weather Roundup
Issued by NWS

Home | Current Version | Previous Version | Graphics & Text | Print | Product List | Glossary On
Versions: 1 2 3 4 5 6 7 8 9 10 11 12 13 14 15 16 17 18 19 20 21 22 23 24 25 26 27 28 29 30 31 32 33 34 35 36 37 38 39 40 41 42 43 44 45 46 47 48 49 50
000
ASUS43 KIND 230709
RWRIN

WEATHER ROUNDUP FOR INDIANA
NATIONAL WEATHER SERVICE INDIANAPOLIS IN
300 AM EDT THU MAR 23 2017

NOTE: "FAIR" INDICATES FEW OR NO CLOUDS BELOW 12,000 FEET WITH NO
SIGNIFICANT WEATHER AND/OR OBSTRUCTIONS TO VISIBILITY.

* - STATION DOES NOT REPORT WEATHER SUCH AS PRECIPITATION OR FOG.

+ - STATION NOT QUALITY CONTROLLED BY THE NATIONAL WEATHER SERVICE.
    USE DATA WITH CAUTION...ESPECIALLY DEWPOINT AND RELATIVE
    HUMIDITY OBSERVATIONS.

INZ001>003-010>013-019-020-230800-
NORTHWEST INDIANA

CITY           SKY/WX    TMP DP  RH WIND       PRES   REMARKS
GARY /AIRPORT/ PTCLDY    30  20  65 E5        30.47S WCI  25
KNOX *+        CLEAR     27   3  36 SE5       30.47F WCI  21
LA PORTE +     CLEAR     23  19  81 SE6       30.48S WCI  16
MICHIGAN CITY+ CLEAR     23  21  93 CALM      30.48F
MONTICELLO +   CLEAR     29  21  71 E6        30.46F WCI  23
RENSSELAER +     N/A     30  23  74 E9        30.45F WCI  22
VALPARAISO     CLEAR     27  20  75 E6        30.47F WCI  20

$$

LMZ046-743>745-230800-
SOUTHERN LAKE MICHIGAN

STATION/POSITION TIME  TEMP    WIND        PRES    WAVE
                       AIR SEA DIR/SP/G            HT
                 (UTC) (F)     (DEG/KT/KT) (MB)    (FT)
BURNS HARBOR     0640   31     110/  8/ 10 1031.8F
MICHIGAN CITY    0640   29     100/  4/  5   N/A

$$

INZ004-005-014>016-021>024-230800-
NORTH CENTRAL INDIANA

CITY           SKY/WX    TMP DP  RH WIND       PRES   REMARKS
GOSHEN         CLEAR     26  15  63 SE6       30.49R WCI  19
LOGANSPORT +   CLEAR     28  21  74 E9        30.48F WCI  20
PERU/GRISSOM   CLEAR     28  22  78 E8        30.45S WCI  20
ROCHESTER +    CLEAR     28  21  74 E5        30.49S WCI  23
SOUTH BEND     CLEAR     27  17  66 SE6       30.49S WCI  20
WARSAW +       CLEAR     27  18  69 SE3       30.49S

$$

INZ006>009-017-018-025>027-230800-
NORTHEAST INDIANA

CITY           SKY/WX    TMP DP  RH WIND       PRES   REMARKS
ANGOLA *+      CLEAR     25  16  68 SE6       30.50R WCI  18
AUBURN +       CLEAR     27  16  63 E3        30.52R
FORT WAYNE     CLEAR     24  17  74 E6        30.50R WCI  17
HUNTINGTON +   CLEAR     26  17  68 E6        30.49S WCI  19
KENDALLVILLE + CLEAR     23  16  74 SE7       30.49S WCI  15

$$

INZ028-029-035-036-043>045-051>053-230800-
WEST CENTRAL INDIANA

CITY           SKY/WX    TMP DP  RH WIND       PRES   REMARKS
CRAWFORDSVL +  CLEAR     26  21  82 E6        30.44S WCI  19
GREENCASTLE +  CLEAR     30  21  69 E6        30.44R WCI  24
LAFAYETTE      CLEAR     28  21  75 E9        30.44F WCI  19
TERRE HAUTE    CLEAR     31  20  63 E6        30.43S WCI  25

$$

INZ030>032-037>040-046>048-054>057-064-065-230800-
CENTRAL INDIANA

CITY           SKY/WX    TMP DP  RH WIND       PRES   REMARKS
CP ATTERBURY + CLEAR     30  23  74 E6        30.44F WCI  24
FISHERS *+     CLEAR     28  23  80 E3        30.45
FRANKFORT +    MOCLDY    31  24  77 E8        30.46S WCI  23
GREENWOOD *+   CLEAR     30  22  73 E7        30.45S WCI  23
INDIANAPOLIS   PTCLDY    30  19  63 E9        30.44S WCI  22
-EAGLE CREEK   CLEAR     29  19  66 E8        30.44S WCI  21
KOKOMO +       CLEAR     27  23  85 E7        30.48R WCI  19
MARION +       CLEAR     28  18  68 E8        30.48S WCI  19
MT COMFORT *+  CLEAR     27  21  80 E6        30.45S WCI  20
SHELBYVILLE    CLEAR     30  20  66 E9        30.43F WCI  22
ZIONSVILLE +   PTCLDY    28  22  78 E7        30.46R WCI  20

$$

INZ033-034-041-042-049-050-058-059-230800-
EAST CENTRAL INDIANA

CITY           SKY/WX    TMP DP  RH WIND       PRES   REMARKS
MUNCIE         CLEAR     28  21  75 E8        30.47S WCI  20
RICHMOND +     CLEAR     27  19  74 E10       30.45F WCI  17

$$

INZ060-061-067>069-081>083-085>088-230800-
SOUTHWEST INDIANA

CITY           SKY/WX    TMP DP  RH WIND       PRES   REMARKS
EVANSVILLE     PTCLDY    36  21  54 E7        30.39F
HUNTINGBURG *+ CLEAR     35  20  54 E6        30.40F WCI  30
WASHINGTON +   CLEAR     32  21  62 MISG      30.41S

$$

INZ062-063-066-070>080-084-089>092-230800-
SOUTH CENTRAL AND SOUTHEAST INDIANA

CITY           SKY/WX    TMP DP  RH WIND       PRES   REMARKS
BEDFORD +      CLEAR     32  19  59 E8        30.41F WCI  25
BLOOMINGTON    CLEAR     31  19  61 E7        30.41F WCI  24
MADISON *+     CLEAR     32  19  59 E9        30.44F WCI  24
NORTH VERNON + CLEAR     32  19  59 E7        30.44S WCI  26
SEYMOUR +      CLEAR     30  23  74 NE7       30.44F WCI  23

$$




USA.gov is the U.S. government's official web portal to all federal, state and local government web resources and services.